Location: Newark
(41.9364°N, 2.8061°E)
Time: 23:30:34
(UTC+00:00)

A-11 Canister half - Pass Details

Date: 23 February 2020
Orbit: 1517 x 1683 km, 47.2° (Epoch: 01 April)

Event Time Altitude Azimuth Distance (km) Brightness Sun altitude
Rises 19:31:45 0° 288° (WNW) 4,862 13.0 -23.1°
Reaches altitude 10° 19:34:57 10° 290° (WNW) 3,853 12.1 -23.7°
Maximum altitude 19:44:46 73° 15° (NNE) 1,643 9.0 -25.5°
Enters shadow 19:48:15 44° 87° (E) 2,051 9.1 -26.2°
